GFSNIL_sfc_dewp_000.txt.gz
Dewpoint
71 66 64 64 62 62 62 63 64 63 63 61 62 63 64 64 64 64 65 64 64 64
68 64 63 63 62 62 63 62 63 62 63 61 61 64 64 63 64 64 64 65 64 63
66 63 62 62 62 61 61 62 62 62 62 62 62 63 64 63 63 64 63 63 63 64
63 62 61 62 62 61 61 62 62 62 62 62 62 63 63 63 63 64 64 64 64 64
61 62 61 62 63 62 62 62 62 62 63 63 63 63 63 63 64 63 63 63 63 63
62 63 63 63 63 63 62 61 61 63 63 62 62 61 61 63 63 63 63 63 63 62
63 62 64 64 63 63 62 62 62 62 62 61 60 60 61 62 62 62 62 63 63 62
64 64 64 64 64 63 62 62 62 62 61 61 60 59 62 63 62 63 63 63 63 61
65 65 65 65 65 63 62 62 62 61 61 61 60 60 61 63 62 63 63 61 61 59
65 64 64 65 65 63 62 62 61 61 61 61 62 59 59 61 64 62 60 60 60 58
64 64 64 63 62 63 62 61 61 62 62 62 62 58 58 60 63 62 60 59 59 59
65 64 65 63 63 62 63 63 62 63 63 62 62 58 57 59 62 61 60 59 57 56
65 63 63 64 64 63 63 63 64 63 62 60 62 58 58 58 61 59 57 57 57 55
66 66 65 64 63 63 64 63 63 62 60 61 62 62 57 54 59 57 56 55 54 54

GFSNIL_sfc_dewp_003.txt.gz
Dewpoint
75 73 73 73 70 68 68 67 67 67 68 69 67 66 67 64 63 66 65 67 67 62
76 75 74 74 72 69 70 66 67 67 68 67 64 65 67 61 64 65 66 65 66 64
74 75 75 74 71 69 68 67 67 67 66 65 64 64 67 63 64 65 62 62 66 66
74 74 74 72 71 68 68 67 67 67 65 65 65 65 66 66 64 64 65 66 66 66
73 71 70 71 67 67 67 67 67 66 66 65 65 65 66 65 61 63 64 64 65 64
71 70 71 65 66 65 66 66 65 65 66 65 65 66 66 65 63 64 64 64 64 64
70 69 67 67 65 66 65 65 65 66 67 66 66 65 64 63 64 65 64 65 65 65
70 69 68 66 65 64 65 65 64 64 66 66 64 60 63 64 64 65 65 65 66 65
69 68 67 68 65 64 64 64 65 65 65 65 62 60 61 63 64 65 66 65 65 65
69 67 68 67 67 65 63 64 64 65 64 66 65 60 60 62 63 64 65 66 65 63
68 68 68 68 67 66 64 64 65 65 66 65 65 59 58 61 65 65 65 65 65 63
68 68 67 67 67 67 65 65 66 64 65 65 65 58 58 61 64 64 63 65 64 62
68 67 66 67 67 66 66 65 64 65 66 63 66 57 57 61 62 63 63 63 62 56
69 68 68 68 67 66 66 65 66 66 66 65 65 64 54 55 63 63 61 59 58 58

GFSNIL_sfc_dewp_009.txt.gz
Dewpoint
78 71 70 73 68 65 63 64 74 71 70 69 67 67 68 63 62 66 63 64 67 59
78 77 72 75 75 68 71 64 67 70 69 68 66 67 67 61 65 64 64 65 67 62
77 78 77 78 76 74 72 72 71 71 70 68 68 68 69 65 66 66 61 58 65 66
75 76 77 76 76 76 74 74 72 73 71 68 68 68 69 67 65 65 67 66 64 65
76 76 75 77 77 77 76 75 73 72 71 68 67 66 68 66 64 63 63 63 66 64
74 75 75 76 76 77 77 75 72 72 72 68 68 68 68 68 67 64 64 64 65 64
74 75 74 76 77 77 77 76 73 72 70 69 68 68 67 67 67 67 66 66 65 65
75 75 76 76 77 77 76 75 73 71 69 69 65 62 68 65 65 67 65 64 64 65
76 77 76 77 78 77 75 74 72 69 67 65 61 60 62 65 62 66 66 65 66 67
77 77 78 77 76 75 73 73 71 68 64 64 66 62 61 63 62 64 65 68 67 64
77 77 77 76 75 74 72 72 69 67 66 67 67 61 60 63 64 65 65 67 68 68
74 75 74 74 73 72 71 70 67 66 66 68 68 59 58 62 65 65 67 67 67 66
75 74 72 73 73 72 72 70 66 65 68 66 68 58 57 61 64 64 65 68 69 62
73 73 73 73 73 72 72 70 69 67 69 69 68 67 56 56 65 61 60 63 63 63

GFSNIL_sfc_dewp_012.txt.gz
Dewpoint
76 75 74 74 74 73 71 70 73 72 72 73 71 71 71 70 67 69 68 67 68 67
77 76 74 75 74 74 74 73 71 72 73 71 71 71 72 68 68 69 70 69 68 67
77 76 75 75 75 73 74 73 73 73 72 71 70 69 71 67 69 68 68 67 68 67
76 76 75 76 75 75 74 73 73 73 71 71 70 70 70 69 67 67 67 67 67 66
76 76 76 75 76 75 76 74 73 73 72 71 68 70 68 66 65 67 67 67 67 66
75 76 76 76 75 77 75 74 72 73 72 71 68 69 68 67 67 67 65 66 66 65
74 75 74 76 76 75 76 74 74 72 72 71 68 68 67 67 67 67 66 67 67 66
74 75 75 75 76 76 76 76 75 74 72 71 68 65 68 68 67 68 66 68 67 67
74 75 75 76 76 76 76 76 76 74 72 71 68 62 64 67 67 68 66 67 68 67
73 75 75 75 76 76 76 76 75 74 72 70 69 62 62 64 66 65 65 68 67 66
74 75 76 76 76 76 77 76 75 73 70 69 66 62 61 63 65 64 66 67 68 67
77 76 76 76 76 77 75 73 72 71 67 67 68 62 59 61 64 63 65 67 66 67
77 77 77 77 76 74 72 72 71 68 67 65 68 61 58 59 64 63 65 68 67 62
77 77 77 77 74 72 72 73 70 68 67 68 67 68 55 56 67 67 67 67 66 67

GFSNIL_sfc_dewp_015.txt.gz
Dewpoint
74 70 70 71 71 71 70 70 71 70 68 67 65 69 68 66 65 65 64 61 62 62
72 73 72 72 71 71 69 69 70 70 68 67 66 65 67 66 64 65 64 61 62 61
73 72 72 73 71 72 70 71 69 70 68 70 66 67 68 65 66 64 65 64 64 62
74 74 72 73 72 71 71 70 69 70 70 68 67 68 68 64 64 65 63 63 62 64
74 74 73 72 72 73 70 71 70 70 70 68 67 66 67 64 64 63 65 63 62 61
73 74 74 73 73 73 73 71 71 71 69 69 68 66 67 65 63 65 64 64 63 63
73 73 74 74 72 73 74 73 69 70 69 69 68 66 66 65 64 65 65 64 64 63
73 73 74 74 74 73 73 73 72 70 70 70 68 66 66 65 65 65 65 64 65 64
72 73 73 74 74 74 73 74 72 72 71 70 69 64 65 65 65 66 65 64 66 64
71 72 73 73 73 74 74 74 74 73 72 70 70 64 63 65 66 65 65 65 65 65
71 71 73 73 74 73 74 74 75 74 71 71 69 62 62 63 64 64 64 66 66 65
70 71 72 73 73 73 74 75 74 72 69 68 67 61 60 61 62 62 62 65 66 65
69 71 73 73 73 74 74 72 72 69 68 65 66 60 58 59 61 61 62 63 65 62
73 74 74 75 74 72 71 71 69 67 67 65 65 64 56 56 62 63 64 63 63 63

GFSNIL_sfc_dewp_018.txt.gz
Dewpoint
70 69 70 69 70 71 70 70 71 70 68 65 65 66 65 64 64 63 61 63 62 61
71 70 69 70 71 71 71 70 71 70 67 65 64 67 66 65 63 65 63 61 60 61
71 72 71 70 71 71 70 70 70 69 67 66 64 65 66 65 64 63 64 63 61 61
70 70 72 72 72 71 70 69 70 69 67 66 65 64 67 64 65 62 63 64 63 62
72 72 71 70 72 72 70 69 69 69 68 67 66 65 65 65 64 64 62 62 62 61
72 73 72 71 70 72 71 70 69 69 69 67 67 66 66 65 64 62 64 63 62 61
73 73 73 72 72 71 72 70 70 69 69 69 67 66 66 66 64 63 63 63 63 62
73 73 73 73 72 71 72 72 70 70 69 68 68 67 66 65 64 64 63 64 64 64
73 73 73 74 74 72 72 73 71 70 69 69 68 65 64 66 66 65 64 63 64 64
73 73 73 73 73 74 72 72 72 70 70 69 69 64 63 65 66 66 65 64 64 64
73 73 73 73 73 73 74 72 73 72 71 70 70 63 61 64 67 67 66 66 65 65
72 72 73 72 73 73 74 74 74 74 72 71 70 61 60 63 66 66 65 65 66 65
71 71 72 72 73 73 74 74 74 73 72 68 67 58 58 62 63 63 63 63 64 61
70 71 71 72 73 74 74 73 72 69 67 68 67 63 58 56 61 61 63 63 64 64

GFSNIL_sfc_dewp_021.txt.gz
Dewpoint
68 67 67 67 67 68 71 71 71 71 71 67 64 65 64 63 63 62 62 60 61 61
69 68 68 68 68 69 70 71 71 71 70 67 64 64 64 64 63 63 61 61 62 61
69 69 69 69 69 69 70 70 70 71 69 67 64 65 65 64 63 64 63 62 60 60
69 70 69 69 69 70 71 70 70 70 69 67 65 65 65 65 64 62 63 63 61 60
69 70 70 69 69 70 70 70 70 70 69 67 66 63 65 65 64 63 61 62 62 62
69 69 70 70 70 71 70 70 69 69 69 67 66 65 63 65 64 64 63 61 62 62
69 70 69 70 70 70 71 70 69 69 69 68 67 66 65 64 64 64 64 64 63 61
70 70 71 70 70 70 71 71 69 69 69 69 67 67 66 66 65 65 64 63 64 63
70 71 71 72 72 71 70 71 70 69 68 69 68 65 64 66 66 65 65 63 64 65
70 71 72 72 72 72 71 71 70 70 69 69 69 63 63 65 67 65 65 65 65 64
71 71 72 72 72 72 71 72 72 70 70 69 69 63 61 64 67 66 66 66 65 64
71 71 72 72 72 73 72 71 72 71 70 70 70 61 60 62 67 66 66 66 66 65
72 72 72 72 72 73 73 73 72 72 72 68 70 60 58 63 67 66 66 65 65 62
72 72 72 72 73 73 73 74 73 73 73 70 67 62 57 60 66 66 65 63 61 62

GFSNIL_sfc_dewp_024.txt.gz
Dewpoint
69 68 68 68 69 69 70 71 73 72 71 71 69 68 67 65 64 65 65 64 64 63
69 69 68 69 69 69 71 71 72 72 72 71 68 68 67 65 65 65 64 64 64 63
69 69 69 69 69 69 70 71 72 72 72 71 68 67 67 66 65 65 64 63 64 64
69 69 69 69 69 69 70 71 71 72 72 70 69 67 66 66 66 65 65 65 63 63
70 70 69 69 70 70 70 71 71 71 71 71 69 68 67 66 66 65 64 65 64 63
69 69 69 70 70 70 71 71 71 71 71 70 69 67 67 67 66 66 65 65 65 64
69 69 69 70 70 70 71 71 71 71 71 70 69 68 67 67 67 66 66 66 65 64
69 69 70 71 71 71 71 71 71 70 71 70 69 68 68 67 66 66 66 66 66 65
69 69 69 70 71 71 71 71 71 70 70 70 69 65 64 67 67 67 66 65 66 66
69 70 70 70 70 70 70 71 71 70 70 70 70 63 63 65 68 68 67 66 66 65
70 70 71 71 71 71 71 70 71 71 70 70 70 62 62 64 68 68 68 67 66 66
70 70 71 71 71 71 71 71 71 71 71 70 70 61 60 63 68 68 67 67 67 67
70 70 71 71 72 72 72 72 72 72 71 68 71 60 59 63 68 68 67 67 67 62
71 71 71 71 72 73 73 73 72 72 72 72 71 68 58 58 69 68 67 67 66 66

GFSNIL_sfc_dewp_027.txt.gz
Dewpoint
74 71 71 72 70 69 69 70 74 74 74 74 74 73 73 71 69 69 68 69 68 64
74 73 72 73 74 70 73 70 73 74 74 75 74 74 73 69 70 68 68 68 68 65
72 73 73 73 73 73 73 74 73 74 74 74 74 74 73 71 70 69 67 65 68 68
72 72 73 73 73 74 74 74 74 74 74 74 74 74 73 72 70 69 69 68 68 68
72 72 72 72 73 74 74 74 75 74 74 74 74 74 73 72 70 70 69 68 68 67
72 72 72 72 73 74 74 74 73 74 74 74 73 73 73 72 72 70 70 69 68 67
72 72 72 73 73 73 74 74 74 75 75 74 73 73 72 72 72 71 70 70 68 68
72 73 73 73 73 74 74 74 74 74 74 74 72 70 72 72 72 71 71 70 69 68
73 73 73 73 74 74 74 74 74 74 74 74 71 66 66 71 71 71 72 71 70 70
72 73 73 73 74 74 74 74 74 74 74 74 74 64 64 66 71 71 72 72 71 69
71 72 73 73 73 74 74 74 74 74 74 74 73 63 62 65 72 72 72 72 71 71
71 72 73 73 73 73 73 74 74 74 74 74 74 61 61 64 70 71 72 72 72 71
72 72 72 73 74 74 73 73 72 73 74 71 74 61 59 63 69 71 70 72 72 63
73 74 73 73 74 74 74 73 74 73 74 74 73 72 58 58 71 69 69 70 68 69

GFSNIL_sfc_dewp_030.txt.gz
Dewpoint
77 72 72 74 69 69 67 68 72 73 74 75 75 75 75 73 72 72 71 70 68 60
77 76 72 75 75 70 74 68 71 72 74 74 75 75 76 72 73 71 71 69 69 64
75 77 76 76 76 75 74 74 72 73 73 74 75 75 76 73 73 73 69 66 68 69
73 74 75 75 76 77 75 76 75 75 74 73 74 75 76 75 73 73 72 70 68 69
75 75 74 75 76 77 77 76 77 76 75 74 73 75 75 74 72 73 72 72 71 68
73 73 75 76 76 77 77 77 73 76 77 75 74 75 75 74 74 73 73 72 72 70
74 74 74 76 76 76 77 77 76 76 77 76 75 74 73 73 74 74 73 73 72 71
74 75 75 76 76 76 77 77 77 77 77 77 73 70 75 75 73 74 73 73 73 72
75 76 76 76 77 77 77 77 77 76 76 76 72 66 66 72 73 75 75 74 73 73
75 76 76 76 77 77 77 77 77 76 76 76 76 64 64 67 72 74 75 75 74 72
75 75 76 77 76 77 76 76 76 76 77 77 76 64 62 65 73 74 75 75 75 75
74 74 75 76 76 76 76 76 75 75 77 77 77 63 61 65 72 72 75 75 74 75
74 75 74 76 77 76 76 75 72 74 76 72 77 64 59 65 70 71 70 75 76 65
75 75 76 77 77 77 76 74 76 74 75 76 75 75 58 59 72 68 69 68 70 71

GFSNIL_sfc_dewp_033.txt.gz
Dewpoint
78 72 71 73 67 66 65 65 74 77 76 76 76 76 77 74 73 75 72 71 71 62
78 77 73 75 75 71 73 66 73 75 76 76 76 77 78 72 75 75 73 73 72 67
77 78 77 77 77 75 74 76 75 74 75 76 76 77 78 75 76 76 71 67 73 72
76 77 78 76 77 77 77 78 76 77 76 76 76 77 78 77 75 76 75 73 73 73
76 76 76 77 76 78 78 77 78 77 77 76 76 77 77 76 72 75 74 73 73 71
75 75 75 77 77 77 78 78 76 77 78 77 76 76 77 77 76 75 75 75 75 73
75 75 75 76 78 77 78 78 77 77 78 77 77 76 76 76 77 76 75 75 75 75
75 76 76 77 77 78 78 78 78 78 77 78 77 73 76 75 76 76 76 76 76 75
75 77 77 78 78 78 78 78 78 78 77 77 74 68 66 73 75 76 76 76 76 76
75 76 77 78 78 78 78 78 78 77 77 77 77 65 64 67 74 75 75 77 76 75
74 76 77 78 78 78 78 78 78 78 78 78 77 66 62 65 74 75 75 76 76 76
75 75 77 77 78 78 77 77 77 77 78 78 77 65 62 64 72 73 74 75 76 76
76 76 76 77 78 78 78 77 75 76 77 74 78 67 61 63 71 72 72 75 76 67
76 77 77 78 78 78 78 76 77 77 77 77 76 77 60 59 73 71 71 71 72 73

GFSNIL_sfc_dewp_036.txt.gz
Dewpoint
76 73 71 75 69 69 69 70 75 75 76 76 76 76 78 77 76 76 75 75 73 71
74 76 73 74 75 73 73 71 76 75 76 75 76 77 78 75 76 77 75 74 74 72
75 75 75 74 75 73 75 74 78 75 75 76 76 77 77 76 77 76 75 73 73 73
75 75 75 75 75 77 75 78 75 77 76 76 76 76 77 76 75 76 75 73 73 72
75 76 75 75 75 76 77 75 78 77 76 76 75 76 76 75 73 75 75 73 72 72
74 74 75 76 75 75 76 77 75 77 77 75 75 75 76 75 75 73 75 75 73 72
74 74 75 75 76 75 75 76 76 76 76 76 75 75 75 75 76 75 74 75 75 74
74 75 75 75 76 76 76 75 76 76 76 76 76 74 75 75 75 75 74 74 75 75
74 74 75 75 76 76 77 76 76 76 76 76 74 69 68 73 74 75 75 75 75 75
73 74 75 76 76 76 76 77 77 76 76 76 76 67 66 68 74 74 75 75 75 74
74 74 75 76 76 76 76 77 76 76 77 76 76 67 64 66 73 74 74 75 75 75
74 74 75 75 76 76 77 76 77 77 77 77 76 65 63 64 71 72 73 74 75 75
74 74 74 76 77 77 77 76 76 76 77 73 77 68 62 64 72 71 71 73 74 67
74 74 75 76 77 77 77 77 77 76 77 77 76 76 62 60 73 72 71 70 71 72

GFSNIL_sfc_dewp_039.txt.gz
Dewpoint
73 71 68 72 68 68 69 71 71 74 73 73 73 74 75 74 74 73 71 71 69 65
70 74 69 67 72 66 69 70 72 73 74 73 73 73 74 74 73 73 72 71 71 68
70 70 73 69 69 72 67 69 72 72 73 73 73 74 74 74 74 73 73 72 71 70
72 70 72 72 70 73 70 72 72 73 73 73 73 74 74 73 73 74 73 72 71 70
73 73 71 72 73 69 74 71 74 74 73 74 73 73 75 73 73 72 73 72 70 70
72 73 72 72 72 74 70 74 71 75 74 73 74 74 73 74 73 72 73 73 71 69
73 73 73 72 72 71 74 72 75 72 75 74 74 73 74 73 73 73 72 74 73 71
73 72 72 73 73 73 71 73 73 74 73 74 73 73 73 73 73 73 73 72 74 73
72 72 72 73 73 74 74 72 73 73 73 73 74 69 68 72 73 73 73 73 72 74
72 72 72 72 73 73 73 74 73 72 73 73 73 66 66 68 73 72 73 73 73 71
71 72 72 72 72 73 73 73 74 74 73 74 73 66 64 66 72 72 72 73 73 73
71 71 72 72 72 73 73 73 73 74 74 74 74 64 63 64 71 72 72 72 73 73
71 72 71 72 72 73 73 73 73 73 75 72 74 66 62 64 72 72 71 72 72 66
73 72 72 72 73 73 73 74 74 74 74 75 74 74 61 60 72 72 72 71 71 71

GFSNIL_sfc_dewp_042.txt.gz
Dewpoint
69 69 68 67 66 66 69 69 71 73 73 73 73 73 72 72 73 71 70 69 66 65
71 69 69 68 68 66 69 71 71 73 72 73 73 73 73 72 72 72 70 69 70 67
69 72 70 68 69 71 67 70 71 71 73 72 72 72 72 73 72 72 72 71 69 69
68 68 72 70 68 68 70 67 70 71 72 73 72 72 72 72 74 72 72 72 70 69
71 69 69 72 70 69 69 70 68 72 72 73 73 72 72 72 73 73 72 72 71 70
71 71 70 69 73 71 69 70 71 73 72 73 73 73 73 72 72 73 73 73 72 71
71 72 72 70 70 73 72 68 72 73 73 73 73 72 72 73 73 72 72 73 73 71
71 72 73 72 71 71 72 73 70 72 73 73 73 73 73 72 72 73 72 72 73 73
72 71 72 73 73 71 71 71 73 72 73 73 73 69 68 71 72 72 72 72 72 72
71 72 72 72 73 73 72 71 70 71 72 72 73 66 66 68 72 72 72 72 72 72
72 72 72 72 72 72 73 73 72 71 71 72 72 65 64 66 72 72 72 72 72 72
71 72 72 72 72 72 72 72 73 73 73 71 72 64 62 64 71 72 72 72 72 73
70 71 72 72 72 72 72 72 72 73 73 71 73 64 61 64 71 71 72 72 73 66
68 70 71 72 72 72 72 72 72 72 73 73 73 73 60 60 72 73 72 72 72 72

GFSNIL_sfc_dewp_045.txt.gz
Dewpoint
66 66 66 67 67 66 67 68 69 71 71 71 72 72 71 71 71 69 70 68 64 64
67 67 67 67 67 66 67 69 69 70 72 72 72 72 71 71 71 71 69 69 68 65
68 68 68 68 67 66 67 69 69 70 71 72 72 72 72 71 71 71 71 70 68 68
68 68 68 69 68 69 67 69 70 71 71 72 72 72 72 72 72 71 71 71 70 68
69 69 70 70 68 68 70 68 69 71 71 72 72 72 71 71 72 72 71 71 71 71
67 68 69 71 71 69 68 69 68 70 71 71 72 72 72 71 71 72 72 72 71 71
69 69 68 68 70 71 70 69 70 69 70 71 72 72 72 72 71 71 72 73 73 72
70 70 70 69 69 70 71 70 70 70 71 71 71 72 72 72 72 71 71 72 72 72
69 70 71 71 70 69 70 72 70 69 70 71 72 68 68 70 71 72 71 71 72 72
70 70 71 72 72 71 70 70 71 71 70 70 71 66 66 68 71 71 71 71 71 71
71 70 71 71 72 72 71 70 70 70 71 71 71 65 64 66 71 72 71 71 71 71
71 71 71 71 71 72 72 72 71 71 70 70 71 63 63 64 71 71 72 72 72 72
70 71 71 72 71 71 72 72 72 72 73 69 70 63 61 64 71 71 71 72 72 66
70 71 71 71 72 72 71 72 71 72 72 73 72 71 60 59 71 71 71 71 71 72

GFSNIL_sfc_dewp_048.txt.gz
Dewpoint
67 66 67 68 68 67 68 69 72 72 73 72 73 73 73 72 72 71 71 70 67 66
67 67 67 68 69 68 69 69 71 72 72 73 73 73 73 72 72 72 71 71 71 67
67 68 68 69 68 68 68 70 70 71 72 73 73 73 73 72 72 72 72 71 71 70
67 68 68 68 69 69 68 69 70 71 71 71 72 73 73 73 73 72 72 72 72 71
68 68 68 69 69 69 68 69 70 71 71 72 72 72 72 72 73 72 72 72 72 72
67 68 69 69 70 70 70 69 69 70 71 71 72 73 73 73 72 73 73 73 72 72
68 68 69 70 70 70 70 70 70 70 71 71 72 73 73 73 72 72 72 73 73 73
68 69 69 70 71 72 70 69 70 70 70 71 71 71 73 73 73 72 72 73 73 73
69 69 69 69 70 71 72 71 71 70 70 70 70 67 67 71 72 73 72 72 73 73
69 70 70 70 70 70 70 72 72 71 71 71 72 65 65 67 72 72 72 73 72 72
69 70 71 71 71 71 70 70 71 72 71 71 71 64 63 66 72 72 72 73 73 73
70 70 71 71 71 72 71 71 70 71 72 72 72 63 62 65 71 72 72 73 73 73
71 71 70 71 71 72 73 72 72 71 72 69 72 64 61 63 71 71 71 73 73 66
71 71 72 72 72 72 72 73 73 73 73 73 71 71 60 59 71 71 71 71 72 72

GFSNIL_sfc_dewp_054.txt.gz
Dewpoint
74 68 68 71 67 66 65 65 70 73 74 75 74 74 75 72 71 73 71 73 71 62
74 73 70 74 71 67 71 66 69 71 73 73 74 74 75 71 73 73 74 72 73 70
71 73 73 72 73 72 70 71 70 71 71 71 73 74 75 72 74 74 71 70 73 73
70 71 72 71 72 73 72 72 73 72 71 71 72 73 75 74 72 74 74 73 73 74
72 72 70 72 71 73 73 73 73 73 72 71 71 73 74 73 71 72 73 73 74 73
70 70 71 72 72 74 73 73 72 72 73 72 71 73 74 74 73 72 72 73 73 73
70 70 70 73 74 72 74 74 73 73 73 72 71 71 72 72 73 72 72 73 73 74
72 72 73 74 75 74 74 74 74 73 73 73 71 67 71 71 71 72 72 72 73 74
74 74 74 75 76 76 75 75 75 73 73 72 68 64 64 69 70 71 73 72 73 74
75 75 75 75 76 76 76 75 76 73 73 74 73 63 63 66 69 69 72 74 73 71
75 75 76 76 76 77 75 75 75 74 75 75 74 64 62 65 71 72 73 73 73 75
74 75 74 75 75 75 75 74 74 74 75 75 76 63 62 65 71 70 74 73 74 75
75 75 75 75 76 76 75 74 72 73 75 71 75 65 61 65 70 71 68 74 76 66
75 75 76 77 77 76 75 74 75 73 75 76 74 74 60 59 72 68 67 66 65 66

GFSNIL_sfc_dewp_057.txt.gz
Dewpoint
75 67 67 70 66 64 62 64 76 74 73 74 74 74 76 72 71 75 71 73 74 63
74 72 67 71 74 68 71 65 68 72 73 73 73 75 76 70 75 74 74 74 74 70
74 75 73 73 75 73 73 74 70 72 71 73 74 74 77 73 74 75 71 69 76 75
73 73 73 74 75 75 75 75 75 74 73 73 73 74 77 77 74 74 75 75 73 75
73 72 71 73 74 76 76 75 76 75 75 73 72 75 76 73 72 73 73 74 75 72
72 72 72 74 74 75 76 77 73 75 76 75 73 75 75 76 75 73 73 73 74 74
72 72 72 74 75 75 76 77 76 76 76 75 74 73 73 74 75 75 73 74 74 74
72 73 74 74 75 75 76 76 77 77 76 76 73 69 73 74 74 75 74 74 75 74
73 74 74 74 75 76 76 77 77 76 76 76 70 65 65 71 72 74 75 75 75 76
74 74 75 75 76 76 77 77 77 77 76 76 76 64 63 65 70 73 74 75 75 73
74 75 75 76 76 77 77 77 77 77 77 77 76 64 61 64 72 72 73 75 75 76
74 75 76 76 76 77 77 77 76 77 78 78 77 63 61 64 71 71 74 74 74 75
75 76 76 77 77 77 77 76 74 75 77 74 78 65 61 64 70 71 69 75 76 66
76 77 77 78 78 78 77 75 77 76 77 78 76 77 60 59 73 68 68 67 66 68

GFSNIL_sfc_dewp_060.txt.gz
Dewpoint
75 70 71 74 70 74 70 70 75 76 76 77 77 77 77 77 76 76 76 76 76 74
73 73 69 74 75 72 75 73 74 75 76 76 77 77 77 75 76 76 77 76 77 75
70 73 73 71 75 73 75 74 76 76 75 76 77 77 77 75 76 76 75 75 75 76
72 71 71 72 70 74 73 78 76 77 76 75 75 77 77 76 76 75 76 76 76 75
73 71 71 69 73 74 75 75 77 76 77 75 75 76 76 75 72 75 75 76 75 75
72 72 71 71 70 73 74 76 74 76 75 76 75 75 75 76 75 75 75 75 75 75
72 72 71 73 71 73 74 74 75 75 76 75 75 74 74 75 75 75 74 75 75 75
73 72 73 72 73 71 73 74 75 75 75 76 75 72 73 74 75 75 75 75 75 75
73 73 73 73 73 74 73 74 75 75 75 75 73 68 66 71 73 75 75 74 75 76
73 73 73 74 73 74 74 75 75 75 75 75 75 65 64 67 72 73 74 75 75 74
72 72 73 73 74 74 74 74 75 75 75 75 75 66 62 65 71 72 73 74 74 75
71 72 73 73 73 74 74 74 74 75 75 75 75 65 63 64 70 70 72 72 74 75
73 72 73 74 74 74 74 74 74 74 75 73 76 66 62 63 70 70 70 73 74 66
75 73 75 75 75 75 75 75 75 75 75 76 75 75 60 59 72 70 70 70 70 72

GFSNIL_sfc_dewp_063.txt.gz
Dewpoint
72 68 70 70 70 70 70 70 72 73 73 73 74 73 73 72 73 71 73 70 71 70
72 69 68 69 71 69 70 70 72 74 73 73 74 73 73 72 73 72 73 72 71 71
69 71 69 68 70 69 67 70 72 74 73 74 74 73 73 71 73 72 71 70 72 71
66 70 70 69 67 71 69 72 73 74 74 74 73 74 74 71 73 72 71 71 72 71
68 66 69 69 70 67 70 71 73 73 73 73 73 74 73 72 71 72 72 72 72 72
70 67 66 66 69 68 72 69 73 73 73 73 73 73 73 73 73 72 72 72 73 71
70 70 67 66 65 70 69 74 71 74 73 74 72 72 73 73 73 73 72 74 73 73
70 70 70 68 68 65 71 69 73 72 74 73 73 72 72 73 73 73 73 72 73 73
70 70 70 70 70 68 66 71 69 71 72 74 73 69 68 70 73 73 73 73 73 73
70 70 70 71 70 71 67 69 72 71 71 72 73 67 66 68 70 71 73 73 72 72
70 70 71 70 70 70 70 68 68 71 72 73 73 66 64 66 69 70 70 73 73 72
69 70 71 70 70 70 71 71 70 71 72 73 73 65 64 63 67 69 70 71 71 73
69 70 70 71 70 71 70 70 72 71 72 71 73 65 63 63 69 67 68 69 71 66
70 69 70 70 71 70 71 71 71 72 72 73 72 72 61 60 71 69 68 68 68 69

GFSNIL_sfc_dewp_066.txt.gz
Dewpoint
69 68 68 69 69 69 70 71 72 72 72 72 72 72 72 71 71 71 71 70 70 69
70 70 68 69 69 70 69 70 72 72 72 72 73 71 72 72 71 72 71 71 70 70
67 70 68 69 69 70 69 70 71 73 72 72 72 72 72 71 71 72 71 71 70 69
65 67 71 68 67 69 69 70 70 72 72 72 72 71 72 70 70 71 70 69 69 70
65 66 68 70 67 67 69 70 72 72 72 72 72 72 72 71 71 71 71 70 70 71
66 65 65 68 69 67 67 69 73 72 72 72 72 72 73 72 71 71 71 71 71 71
69 66 64 65 67 69 67 67 71 72 72 72 72 72 72 72 72 71 71 72 72 72
69 69 67 64 65 66 69 68 68 71 72 72 71 71 71 72 72 72 72 72 72 73
68 69 70 69 65 66 65 67 69 71 71 71 72 67 67 70 72 72 71 71 72 72
70 70 70 70 69 67 66 64 67 68 71 72 72 65 65 68 71 72 72 71 71 72
71 71 70 70 70 69 68 66 64 68 68 70 72 66 64 66 70 70 71 72 72 72
70 70 70 70 70 70 70 69 66 67 71 69 69 63 63 65 70 70 70 70 71 72
68 69 70 70 70 70 70 70 70 67 67 69 71 64 62 64 71 70 70 69 70 65
69 68 69 70 70 70 70 69 70 69 69 69 69 70 61 60 71 71 69 69 68 70

GFSNIL_sfc_dewp_069.txt.gz
Dewpoint
66 67 68 68 68 69 70 71 71 71 71 71 70 71 71 71 71 70 70 69 70 68
67 66 67 69 68 69 69 71 71 72 71 72 71 71 71 70 70 70 70 70 69 69
69 69 68 68 70 69 70 70 71 72 71 71 72 71 70 70 70 70 70 71 70 69
66 68 69 68 68 69 70 70 70 72 72 71 71 72 71 70 70 70 70 69 69 69
65 66 69 69 68 67 68 69 70 70 72 71 71 71 71 71 70 70 70 70 69 69
64 64 65 68 69 67 67 68 70 71 71 71 71 71 71 71 71 70 70 71 70 69
65 64 64 65 67 69 67 67 68 72 72 72 71 71 71 72 71 71 70 70 71 71
67 66 64 64 64 67 69 67 67 69 72 72 72 72 71 71 71 71 71 71 71 71
67 68 66 65 64 64 66 67 67 67 68 71 71 67 67 70 71 71 71 71 71 71
68 68 69 68 65 64 64 64 64 67 68 68 70 66 65 67 70 70 70 70 70 70
68 68 69 69 68 66 64 64 64 63 64 68 68 64 64 66 70 70 70 70 70 70
69 70 69 69 69 69 68 66 66 64 64 65 66 63 63 64 69 70 70 70 71 71
68 71 70 70 70 70 70 69 68 67 66 64 66 61 62 64 70 70 70 70 70 65
68 69 70 70 70 70 70 70 69 69 68 67 67 68 59 60 70 69 69 69 69 70

GFSNIL_sfc_dewp_072.txt.gz
Dewpoint
69 68 69 68 69 69 70 71 73 73 72 73 72 71 72 71 72 72 71 71 72 70
68 68 68 70 70 69 71 71 73 73 73 73 72 72 72 71 72 73 72 72 72 71
67 68 68 69 70 70 71 71 73 73 73 73 73 73 73 72 72 72 72 71 72 72
68 68 68 68 69 70 71 71 72 73 73 72 72 73 72 72 72 72 72 72 72 71
67 69 69 68 69 70 70 71 71 72 73 73 73 72 73 72 72 71 71 71 72 71
66 67 68 69 69 69 69 70 71 71 72 73 73 73 73 72 72 72 71 71 71 71
66 66 66 68 69 69 69 69 69 70 71 72 73 73 73 72 72 72 72 72 72 72
67 67 67 67 68 69 69 69 69 69 71 72 73 72 73 73 72 72 72 72 72 72
68 68 67 67 67 68 69 69 69 69 70 71 71 68 67 71 72 73 72 72 72 73
68 68 68 68 67 67 67 68 68 68 69 69 71 65 66 68 72 72 72 73 73 72
68 68 69 69 68 67 66 66 67 68 68 68 68 64 64 66 71 72 72 72 72 72
69 68 69 69 70 69 68 67 66 67 67 68 68 61 62 64 70 70 71 72 72 72
67 70 70 70 70 71 71 69 68 67 68 65 67 61 60 63 69 68 68 71 72 65
66 67 70 71 71 71 71 71 71 69 69 69 67 67 58 59 69 68 68 68 68 71

GFSNIL_sfc_dewp_075.txt.gz
Dewpoint
73 69 69 71 69 70 69 70 74 75 74 75 75 74 74 72 71 73 72 73 75 71
72 72 70 72 72 70 73 70 73 74 75 74 75 75 75 71 75 76 74 73 73 72
70 71 72 72 73 72 72 73 73 74 74 75 75 75 75 73 73 74 72 71 74 74
69 69 71 71 72 73 73 74 74 74 74 74 74 75 75 75 74 74 74 74 74 74
70 70 69 70 70 72 73 74 74 74 75 74 74 75 75 74 72 73 72 73 74 73
68 69 69 70 70 71 72 73 72 73 74 74 74 74 75 75 74 74 73 72 73 73
67 68 69 71 71 71 72 72 72 73 73 73 74 74 74 74 74 74 73 74 73 73
69 69 68 70 72 71 71 71 72 72 72 73 71 70 73 74 74 74 74 74 74 73
70 71 71 72 72 72 71 71 71 71 71 71 68 65 66 71 73 74 74 73 74 74
70 70 71 71 71 71 72 71 72 71 71 72 72 64 64 68 70 72 73 74 74 72
70 69 71 71 71 72 70 71 71 71 72 72 71 64 63 66 72 73 73 73 74 74
70 70 70 70 71 71 71 70 70 70 71 72 72 62 62 65 70 69 73 74 74 74
67 69 71 71 72 72 72 71 69 69 70 67 71 64 59 63 67 69 68 72 74 66
65 66 67 72 74 72 73 73 72 71 72 72 70 70 59 58 69 67 68 68 67 68

GFSNIL_sfc_dewp_078.txt.gz
Dewpoint
74 70 69 70 66 66 66 68 72 74 72 72 73 73 74 70 68 71 68 71 72 66
74 73 69 71 70 68 71 67 71 73 73 72 72 73 74 70 71 72 72 71 71 69
72 73 73 71 71 71 69 72 70 73 73 73 73 74 75 71 72 73 70 68 71 72
70 71 72 71 71 72 71 72 73 74 74 74 73 73 75 74 72 73 72 72 72 73
72 71 69 71 71 72 72 72 73 74 75 72 72 73 75 73 70 72 71 72 73 72
69 69 70 70 71 72 72 72 71 73 75 74 72 73 74 74 73 72 72 71 72 72
69 69 70 70 71 71 72 72 71 72 73 73 73 73 74 74 74 73 72 73 73 73
69 70 70 70 71 71 72 72 72 71 71 72 71 69 74 74 73 74 74 73 74 73
70 70 71 71 70 72 72 73 73 72 71 70 66 64 65 70 72 73 74 73 73 74
71 71 71 72 72 72 72 72 73 72 72 72 72 63 63 66 69 70 72 73 73 70
70 70 72 73 73 73 72 72 72 72 73 73 72 63 62 64 70 71 72 73 73 74
64 67 70 71 72 73 73 72 72 72 73 73 74 62 62 65 69 68 72 72 74 74
63 64 65 70 72 74 73 72 71 71 72 69 73 65 60 64 68 68 67 72 74 66
61 64 65 66 69 73 75 76 74 72 73 74 71 72 59 58 70 67 66 66 66 67

GFSNIL_sfc_dewp_081.txt.gz
Dewpoint
75 70 68 70 73 71 71 72 75 73 72 72 72 73 73 71 70 73 70 71 75 69
75 74 71 73 72 67 74 71 72 71 72 72 72 73 75 70 73 73 73 71 72 70
72 74 73 72 72 72 71 71 72 71 73 72 72 73 75 74 73 73 70 67 75 74
72 72 73 72 72 72 72 72 72 73 74 73 73 73 76 75 74 73 72 73 72 73
73 73 70 72 72 73 74 72 73 74 73 73 72 74 74 72 70 71 72 71 73 71
70 71 71 72 72 74 73 74 70 73 75 73 72 74 74 74 73 72 72 72 72 71
70 70 70 72 74 72 75 74 73 73 74 74 72 71 72 73 75 74 72 72 73 72
70 71 71 72 73 73 74 74 74 75 74 74 71 68 73 73 73 75 74 73 73 74
73 73 72 72 72 73 73 75 76 75 74 73 67 63 65 71 73 74 76 74 74 75
68 71 73 74 74 73 73 74 76 75 75 75 75 64 63 66 69 72 74 76 76 72
65 67 70 72 73 74 74 75 74 75 76 76 74 65 62 64 72 72 73 74 75 76
61 64 66 68 69 73 75 74 74 73 75 75 76 64 62 64 70 69 72 73 73 74
63 62 63 64 67 70 74 74 76 73 75 71 75 67 61 63 70 70 68 73 74 66
60 61 62 64 67 67 67 70 73 74 76 76 74 75 61 59 72 70 68 68 67 69

GFSNIL_sfc_dewp_084.txt.gz
Dewpoint
76 73 73 74 75 70 72 73 75 76 76 77 76 75 76 77 75 76 75 74 75 74
76 76 72 75 76 74 74 72 75 73 75 76 76 76 76 75 76 76 76 75 75 75
75 76 76 77 77 78 75 73 72 73 72 76 76 76 76 75 75 75 76 73 75 75
74 75 76 75 76 76 77 74 72 66 70 75 76 76 76 75 74 74 75 75 75 74
75 74 74 75 75 77 76 77 77 75 75 76 75 75 75 75 73 74 74 74 73 73
73 73 74 75 75 76 76 76 74 75 76 76 76 76 76 75 75 74 73 74 74 74
73 73 73 76 76 75 76 76 75 76 76 75 75 75 75 76 76 76 74 75 75 75
72 74 75 76 75 76 76 75 76 76 75 76 74 71 74 75 75 74 74 75 75 75
72 72 74 75 75 76 76 76 76 75 75 75 70 66 66 71 72 75 75 74 75 76
67 69 70 71 74 75 75 75 75 75 76 75 75 67 64 65 72 74 75 75 75 74
64 66 68 70 69 70 73 75 75 74 75 75 75 66 64 65 70 72 73 73 75 75
63 64 64 66 67 68 69 70 73 74 75 75 75 66 62 65 72 71 72 72 73 73
63 64 64 65 66 69 69 69 71 72 75 71 74 67 63 64 72 72 71 72 73 66
62 63 64 65 67 67 68 70 69 71 73 74 73 74 62 60 73 73 72 71 71 71

GFSNIL_sfc_dewp_087.txt.gz
Dewpoint
71 72 70 71 70 71 68 70 71 72 73 73 72 72 72 72 72 71 71 69 69 70
72 72 70 70 71 69 70 72 73 72 72 72 73 72 73 72 72 72 71 70 70 70
73 73 73 73 72 72 71 70 71 71 71 72 73 73 72 71 72 71 72 72 70 70
73 73 73 73 73 72 71 71 71 70 67 70 72 72 72 72 71 72 71 70 71 69
73 73 73 73 73 73 70 71 69 65 65 68 71 73 72 71 71 71 70 70 71 70
73 72 72 73 73 73 73 72 72 71 71 72 72 72 73 72 71 72 71 71 71 71
70 71 72 74 73 74 74 73 72 73 72 73 73 73 73 73 72 72 73 72 73 71
70 71 72 72 73 73 73 73 73 73 73 74 73 72 73 73 73 72 72 72 73 73
69 70 69 71 72 72 71 72 73 73 73 73 72 69 68 70 71 73 71 71 72 73
67 68 68 69 68 68 69 73 72 72 72 73 73 66 65 65 68 71 73 73 72 71
64 65 66 67 67 68 68 69 71 72 73 73 73 66 64 66 67 68 69 71 73 73
63 63 63 64 66 67 67 68 68 69 71 71 72 67 63 64 69 70 70 70 70 71
61 60 60 62 63 65 66 68 70 70 70 69 72 67 62 63 70 71 71 71 70 65
56 57 58 59 61 62 62 64 66 68 69 70 70 67 60 59 66 71 71 72 72 71

GFSNIL_sfc_dewp_090.txt.gz
Dewpoint
71 70 69 69 69 70 70 69 70 72 72 72 71 71 71 71 70 70 70 68 68 67
71 70 69 70 69 71 70 70 70 71 72 72 72 70 71 71 71 71 70 69 69 69
71 71 71 70 70 70 70 70 71 71 71 71 72 71 71 71 70 70 70 70 70 69
72 72 72 72 72 71 70 70 70 70 71 70 71 72 71 70 70 70 70 70 70 69
72 72 72 72 72 72 70 70 69 69 68 68 70 71 71 70 71 70 70 70 69 70
70 71 72 72 73 72 70 69 70 67 65 64 68 70 72 71 70 71 71 70 69 70
69 69 70 72 72 71 72 70 70 70 70 70 71 71 71 72 70 70 71 72 71 71
69 69 70 71 71 73 72 73 72 72 72 72 72 71 71 72 72 71 71 72 72 72
68 68 69 69 68 70 71 71 72 72 72 71 72 68 66 70 72 72 72 71 70 71
67 67 67 67 68 67 68 69 70 70 71 72 72 68 65 66 68 70 70 72 71 71
64 64 65 65 65 67 67 67 68 69 70 70 72 67 64 65 68 68 68 70 72 72
61 62 63 64 65 65 67 66 67 69 68 69 70 64 62 64 69 69 70 70 70 70
57 58 61 60 61 64 63 65 66 67 68 66 71 58 58 62 68 69 70 71 71 65
52 53 55 56 57 59 57 58 61 64 66 67 64 61 57 58 64 64 66 67 70 70

GFSNIL_sfc_dewp_093.txt.gz
Dewpoint
69 68 68 69 69 69 69 70 70 71 71 71 70 70 67 70 70 69 70 68 68 67
70 69 68 69 69 68 70 70 69 70 71 70 70 70 70 70 70 70 70 68 68 68
70 70 70 69 70 69 70 69 69 70 71 71 72 71 70 70 70 69 70 70 69 68
70 70 71 70 70 70 69 69 70 70 70 70 71 71 70 70 70 69 69 69 69 68
70 71 71 70 71 71 71 69 70 70 70 70 70 71 71 71 70 70 69 68 69 68
69 70 71 71 71 72 72 70 69 69 68 67 66 68 71 71 70 70 70 70 69 68
68 68 69 70 70 71 72 71 69 69 67 66 65 66 69 71 71 70 70 71 71 70
69 69 69 68 68 70 71 72 71 70 70 70 70 70 71 71 71 71 70 70 71 71
67 67 67 67 68 68 68 69 70 70 70 70 72 69 67 70 71 71 71 71 71 71
66 65 65 66 66 66 67 67 68 69 70 71 70 66 64 66 70 70 70 70 71 71
64 64 64 64 64 65 65 66 66 68 68 68 69 63 62 65 67 69 68 68 70 70
59 62 63 63 64 64 63 63 64 66 67 67 68 59 59 65 68 68 69 69 70 70
52 55 57 58 60 63 61 61 62 64 67 64 65 58 60 63 66 64 65 67 68 61
49 50 50 53 56 55 55 56 62 65 66 65 63 62 55 56 61 60 60 62 64 65

GFSNIL_sfc_dewp_096.txt.gz
Dewpoint
69 69 70 70 70 70 71 71 72 72 73 72 72 70 70 71 71 71 71 71 71 70
70 69 69 70 71 70 71 71 71 71 73 72 72 72 72 72 72 72 72 71 71 70
70 70 70 70 70 70 71 71 71 70 71 72 72 73 72 72 72 72 71 71 72 71
70 71 71 70 71 71 71 71 71 71 71 72 72 73 73 72 72 71 71 71 71 71
70 71 71 71 71 72 72 71 70 71 71 72 71 72 72 72 72 71 71 71 71 70
70 71 71 71 72 72 73 72 71 71 70 70 70 71 71 72 72 72 71 71 71 71
69 69 70 70 71 71 72 72 71 71 70 70 70 69 68 71 72 72 72 72 72 72
68 68 69 68 68 69 70 71 72 71 71 70 69 68 70 71 71 72 72 72 72 72
67 67 66 68 68 68 68 68 69 70 71 71 72 66 66 71 72 73 73 73 73 73
65 65 65 66 66 65 66 67 68 68 68 68 70 63 63 66 71 72 72 72 72 71
65 64 64 63 63 63 63 64 65 66 68 69 67 60 61 64 69 71 70 70 71 71
58 60 61 62 63 62 61 61 62 65 68 64 61 57 59 65 69 68 68 69 68 68
53 55 57 59 61 62 61 62 64 65 65 61 61 53 55 59 62 61 63 65 66 62
50 51 52 52 53 53 52 53 60 59 57 55 53 51 50 52 57 59 61 62 62 62

GFSNIL_sfc_dewp_099.txt.gz
Dewpoint
75 70 71 72 70 70 71 70 73 74 75 75 74 73 73 71 72 74 72 73 74 70
73 72 71 73 73 71 73 72 73 73 74 74 75 74 74 70 73 74 74 73 74 72
72 73 73 73 73 73 73 73 73 73 73 74 74 75 75 73 74 74 72 71 74 74
71 72 73 73 73 73 74 74 74 74 73 72 73 74 75 75 73 74 74 74 74 73
72 73 73 73 73 73 73 74 74 74 74 74 74 74 74 74 73 73 73 72 73 73
72 72 71 72 73 73 74 75 73 74 74 74 73 72 73 74 73 73 73 73 73 72
72 73 72 73 73 74 74 74 74 74 74 73 73 72 71 71 73 74 72 73 73 73
70 70 71 72 72 72 73 73 74 74 74 73 72 69 71 71 71 71 73 74 73 73
68 69 70 70 70 70 71 71 72 72 72 72 72 62 64 70 73 74 74 74 75 74
67 67 67 68 68 68 69 69 70 70 71 70 66 61 61 66 74 75 75 74 74 73
66 65 65 66 66 66 67 67 68 70 66 63 59 58 59 65 73 73 72 70 70 69
63 63 64 64 64 64 65 66 69 65 64 59 57 54 57 64 65 66 66 65 62 62
58 60 60 62 62 63 65 66 64 59 56 53 53 51 52 59 62 62 64 63 63 57
56 57 57 57 57 59 59 57 56 55 54 50 50 48 48 50 55 57 59 58 56 55

GFSNIL_sfc_dewp_102.txt.gz
Dewpoint
72 67 66 68 68 67 70 68 73 71 71 72 72 73 74 71 69 71 69 70 72 66
71 71 70 70 73 68 71 71 73 73 72 72 72 73 74 69 72 73 72 71 71 69
70 71 70 71 70 72 75 74 73 73 73 71 72 72 73 71 72 73 70 68 72 72
69 69 71 70 70 71 71 74 73 75 74 74 73 73 74 73 71 72 71 72 72 72
68 69 68 70 70 72 71 74 73 73 75 73 71 73 73 72 69 71 70 70 71 71
68 68 69 70 70 72 71 71 71 73 73 71 72 73 73 72 71 71 70 70 70 70
69 68 68 71 72 71 74 71 71 71 72 72 71 72 73 72 72 71 70 71 70 71
72 73 72 72 73 73 73 72 74 72 73 73 71 68 73 73 72 72 71 72 71 71
70 71 71 72 72 73 73 74 74 73 73 73 70 62 64 70 72 73 72 71 72 71
69 69 70 70 71 72 72 72 72 72 72 70 68 59 62 65 73 74 71 72 72 71
68 67 67 67 68 69 70 70 70 70 68 65 60 57 60 66 73 72 71 71 70 69
66 65 65 65 66 67 70 68 69 67 64 61 57 52 55 66 70 69 68 64 64 64
63 66 66 66 65 64 68 65 62 60 58 55 53 49 51 59 63 64 62 63 62 55
61 62 62 62 64 64 59 57 58 55 51 51 51 48 47 49 56 58 56 55 54 53

GFSNIL_sfc_dewp_105.txt.gz
Dewpoint
72 67 67 69 74 73 69 70 73 72 71 71 72 72 73 70 68 73 69 71 75 68
72 71 71 72 73 71 71 72 72 71 71 71 72 72 74 70 72 73 72 72 72 70
70 71 71 71 72 72 72 72 74 72 72 72 72 73 74 72 73 72 70 66 72 72
67 67 69 68 69 71 71 72 72 73 72 72 72 73 74 75 74 72 72 72 71 71
69 68 66 68 68 71 72 73 72 73 72 71 72 73 73 73 69 70 70 70 71 70
69 68 68 67 68 70 72 72 71 72 72 72 71 71 72 73 71 70 69 69 70 70
71 68 68 73 70 69 72 72 71 72 73 72 71 71 71 71 72 71 70 70 73 72
74 72 72 72 73 70 71 71 71 71 74 71 69 67 71 71 72 72 71 70 70 71
73 72 73 73 72 73 72 72 72 71 72 72 70 62 63 68 72 72 73 72 70 70
70 70 71 72 73 73 73 73 73 72 72 72 70 58 61 66 71 72 73 73 73 72
69 69 70 70 69 70 71 72 73 72 70 67 61 55 56 62 73 74 74 73 72 72
69 68 67 67 67 68 70 71 69 68 66 63 60 51 53 62 72 70 70 67 63 66
68 66 66 66 66 66 67 66 66 61 60 56 57 48 50 56 66 68 64 62 59 55
64 64 66 66 67 65 64 62 61 58 56 54 52 47 47 49 58 58 61 59 57 54

GFSNIL_sfc_dewp_108.txt.gz
Dewpoint
75 73 72 72 73 69 71 72 75 76 76 76 77 76 77 76 75 76 75 76 76 74
76 75 76 74 73 70 72 73 73 75 76 75 75 76 76 75 74 74 72 74 76 75
73 74 75 72 72 70 69 73 69 71 75 76 74 74 76 75 73 75 74 73 74 76
72 72 73 74 73 69 71 73 69 75 76 76 74 74 76 76 75 74 75 75 74 74
72 71 71 73 72 76 75 77 76 76 76 76 75 76 76 74 74 72 73 74 75 74
72 72 73 71 73 75 76 76 74 76 76 75 75 74 76 76 76 74 72 74 74 74
74 71 72 71 73 74 76 75 75 75 74 75 75 74 74 75 74 74 73 73 73 70
72 73 75 74 75 75 75 74 74 75 75 75 71 65 67 74 74 74 74 75 74 74
72 72 72 72 74 75 75 75 75 74 74 74 66 61 63 67 74 74 74 74 74 73
72 72 71 71 73 72 73 74 74 74 74 69 63 57 58 63 70 73 75 76 76 74
70 70 69 69 71 72 71 70 70 70 69 67 56 53 55 59 69 75 74 72 72 68
69 68 69 68 68 69 69 69 67 66 63 63 55 50 53 60 74 71 66 64 61 63
70 68 67 67 67 68 68 66 64 61 57 57 54 48 50 58 71 69 65 61 58 55
68 68 67 67 69 67 64 62 60 57 55 52 52 48 49 50 59 61 58 61 58 57

GFSNIL_sfc_dewp_111.txt.gz
Dewpoint
71 71 70 70 71 68 68 70 71 72 71 71 73 72 72 71 72 70 70 69 70 71
71 70 71 70 70 68 67 69 71 72 72 72 72 71 71 71 70 70 68 70 70 71
71 71 70 70 70 67 67 68 71 72 71 72 71 70 71 71 69 71 71 71 69 70
71 70 70 71 70 69 68 70 70 70 71 71 70 72 71 71 70 71 70 71 70 69
70 70 70 70 69 67 68 71 71 69 72 71 71 72 71 71 72 70 70 70 69 69
69 70 69 69 70 71 70 72 73 72 71 71 72 71 72 72 71 71 71 70 70 69
70 69 69 68 68 71 72 71 71 72 72 71 71 69 71 72 71 71 71 72 71 69
70 71 71 71 69 71 72 72 71 71 71 68 67 64 65 68 71 70 70 71 71 71
70 70 71 71 70 70 70 69 70 70 70 64 61 61 63 65 68 71 70 70 71 68
70 69 70 70 70 71 70 70 69 69 64 58 55 55 57 61 66 70 71 70 70 64
70 69 68 67 68 70 70 70 68 67 65 58 50 53 55 58 66 66 63 65 62 59
68 67 67 67 67 68 68 66 64 64 61 52 46 52 54 62 67 64 59 58 59 55
68 67 66 65 66 67 65 62 61 59 56 53 44 49 52 59 67 61 55 52 51 55
67 67 66 65 65 65 61 58 56 53 49 48 47 44 49 51 55 60 59 56 52 50

GFSNIL_sfc_dewp_114.txt.gz
Dewpoint
70 69 69 68 69 68 68 69 70 71 71 71 71 70 71 70 71 69 69 68 70 69
70 70 69 69 69 68 67 68 69 71 70 71 71 71 71 70 70 70 68 70 70 70
70 70 70 69 69 68 66 67 68 70 71 71 72 70 71 70 69 70 70 70 68 69
70 70 69 69 68 67 65 66 67 69 69 70 71 71 71 71 70 70 70 70 69 68
70 70 68 68 69 69 66 68 69 69 69 70 71 71 71 70 72 70 69 68 69 69
70 69 69 68 69 67 68 67 69 69 68 70 71 70 70 70 70 71 71 71 70 69
70 70 69 69 70 68 66 67 70 71 71 70 69 68 69 71 71 70 70 71 70 70
70 70 70 70 70 71 70 71 71 70 68 67 66 66 66 68 69 70 69 70 71 70
70 70 70 71 71 71 70 69 68 69 66 63 60 58 63 64 67 69 69 69 66 64
69 69 69 70 70 70 70 70 68 65 62 60 57 56 57 60 64 68 69 69 66 58
69 68 68 68 69 70 69 70 68 64 62 57 57 55 56 60 65 64 64 62 58 56
68 67 67 67 67 68 67 67 66 64 60 57 51 53 57 64 63 60 58 57 54 52
68 67 66 66 67 66 64 62 60 58 51 49 47 51 54 64 62 58 54 50 50 54
68 67 66 65 65 62 60 57 54 49 48 46 44 45 50 56 61 59 54 49 47 48

GFSNIL_sfc_dewp_117.txt.gz
Dewpoint
68 68 67 67 68 68 68 68 69 70 71 70 71 69 71 70 71 69 69 68 69 66
69 69 68 68 67 68 68 68 68 71 70 71 70 71 70 70 70 70 68 69 69 68
69 69 69 69 68 68 67 66 68 70 70 70 70 71 70 70 69 69 69 70 68 69
69 69 69 68 68 68 67 66 66 67 69 68 70 71 70 70 69 68 69 69 68 68
69 69 68 68 68 68 66 65 65 67 69 68 70 69 70 70 70 70 69 68 69 68
69 69 68 68 68 68 68 66 67 69 68 68 69 70 70 70 70 70 70 70 69 69
69 69 69 68 68 68 67 67 66 68 69 69 70 68 69 70 71 71 70 70 70 70
70 70 70 69 69 69 68 67 68 69 69 67 67 67 66 68 69 70 70 70 70 69
69 70 70 70 70 70 70 70 69 69 66 63 61 59 63 64 67 68 69 69 66 66
69 68 69 70 70 70 69 69 68 65 63 61 59 57 57 61 64 67 68 68 65 58
68 68 69 69 69 69 69 69 67 65 62 59 58 55 56 60 63 65 63 64 61 58
68 68 67 67 67 68 68 69 67 64 61 60 58 55 56 63 63 60 59 59 59 60
68 67 67 67 67 66 66 63 62 59 58 56 56 55 56 62 61 58 56 56 56 55
67 67 67 66 66 63 59 56 53 50 47 45 46 49 54 57 58 56 51 49 48 49

GFSNIL_sfc_dewp_120.txt.gz
Dewpoint
69 69 69 69 69 70 70 70 71 71 72 72 73 72 73 71 71 71 71 70 71 70
69 69 69 69 69 68 70 69 70 71 72 72 72 73 72 71 71 72 71 70 71 71
70 70 70 69 69 69 69 69 70 70 71 71 72 72 72 72 72 71 70 71 71 71
69 70 70 70 70 69 69 68 68 70 70 71 71 72 73 72 72 71 71 71 71 70
69 70 69 69 69 70 69 68 68 68 69 70 70 72 71 72 72 71 71 71 71 71
69 69 69 69 69 69 69 68 67 68 69 70 70 71 71 71 72 71 72 71 71 71
69 69 69 69 69 69 69 69 68 69 70 70 70 71 71 71 72 72 72 72 72 72
70 71 71 70 70 70 69 69 69 68 70 70 70 68 68 69 70 70 70 71 71 71
70 70 70 70 70 70 70 70 69 70 70 68 65 61 64 66 69 70 70 71 70 69
70 70 70 70 70 70 70 69 70 69 66 64 63 58 60 61 66 68 70 70 68 64
69 69 69 70 69 69 70 68 68 66 65 63 62 57 57 59 63 67 66 68 65 62
69 68 68 68 68 69 69 69 68 66 64 63 61 57 58 63 64 61 61 62 62 63
68 68 68 67 67 67 67 66 65 62 62 60 61 56 57 62 63 60 58 58 57 55
68 68 68 67 66 64 63 61 60 58 57 55 55 57 56 59 62 60 57 55 52 52

GFSNIL_sfc_dewp_123.txt.gz
Dewpoint
73 70 70 72 70 70 70 70 73 73 74 74 75 74 75 73 72 73 72 73 74 70
73 72 71 72 72 70 72 71 72 72 73 73 74 75 75 71 73 74 73 72 73 72
71 72 72 72 72 72 72 72 72 72 72 73 74 74 75 75 74 74 72 70 73 74
70 71 72 71 72 73 72 72 71 72 72 73 73 74 75 75 74 74 74 73 74 73
70 71 70 72 72 73 73 72 72 71 71 71 72 73 74 73 72 73 72 72 73 73
69 69 70 71 71 72 72 72 71 70 70 70 70 72 74 74 73 72 73 73 73 72
69 69 69 71 72 72 72 72 71 71 70 70 72 72 72 73 74 73 73 74 73 73
72 71 71 72 72 72 72 72 72 71 70 71 72 70 72 73 73 74 73 72 73 73
72 72 72 73 73 73 73 73 73 72 71 72 70 63 65 68 71 72 72 70 71 73
72 72 71 72 74 73 74 74 73 73 72 72 70 59 60 61 68 70 71 72 73 72
71 71 71 70 71 70 73 71 73 72 71 69 67 57 57 59 66 68 70 71 72 72
69 69 69 69 69 70 70 70 69 70 70 68 66 59 59 62 68 66 66 66 66 66
69 69 69 69 68 69 70 69 68 67 67 62 63 58 56 61 66 63 61 59 60 55
69 70 69 68 68 67 65 64 62 60 58 58 57 59 57 57 64 63 61 60 59 55